Hourly Data Report for June 02, 2017

TORONTO CITY
ONTARIO

43°40'00.000" N
79°24'00.000" W
112.50 m
6158355
71508
XTO

Download Data

Hourly Data (June 2017)
Hourly Data Report for June 2, 2017
TIME
LST
Temp Definition
°C
Dew Point Definition
°C
Rel Hum Definition
%
Precip. Amount Definition
mm

Wind Dir Definition
10's deg

Wind Spd Definition
km/h
Visibility Definition
km
Stn Press Definition
kPa
Hmdx Definition


Wind Chill Definition


Weather Definition


00:00 11.8 7.1 73 0.0 LegendMM LegendMM   100.14     LegendNANA
01:00 11.1 7.4 78 0.0 LegendMM LegendMM   100.12     LegendNANA
02:00 10.4 7.3 81 0.0 LegendMM LegendMM   100.09     LegendNANA
03:00 9.9 7.6 85 0.0 LegendMM LegendMM   100.07     LegendNANA
04:00 9.7 7.5 86 0.0 LegendMM LegendMM   100.08     LegendNANA
05:00 10.7 4.3 65 0.0 LegendMM LegendMM   100.14     LegendNANA
06:00 10.9 3.8 61 0.0 LegendMM LegendMM   100.21     LegendNANA
07:00 12.7 4.2 56 0.0 LegendMM LegendMM   100.28     LegendNANA
08:00 14.8 3.4 46 0.0 LegendMM LegendMM   100.34     LegendNANA
09:00 16.0 2.2 39 0.0 LegendMM LegendMM   100.37     LegendNANA
10:00 17.5 2.9 38 0.0 LegendMM LegendMM   100.37     LegendNANA
11:00 18.3 2.2 34 0.0 LegendMM LegendMM   100.36     LegendNANA
12:00 18.4 2.4 34 0.0 LegendMM LegendMM   100.35     LegendNANA
13:00 19.1 3.0 34 0.0 LegendMM LegendMM   100.32     LegendNANA
14:00 19.1 2.7 34 0.0 LegendMM LegendMM   100.28     LegendNANA
15:00 20.7 4.6 35 0.0 LegendMM LegendMM   100.22     LegendNANA
16:00 20.4 3.6 33 0.0 LegendMM LegendMM   100.18     LegendNANA
17:00 19.8 1.9 30 0.0 LegendMM LegendMM   100.17     LegendNANA
18:00 19.5 2.6 33 0.0 LegendMM LegendMM   100.16     LegendNANA
19:00 18.3 2.9 36 0.0 LegendMM LegendMM   100.19     LegendNANA
20:00 16.6 3.8 42 0.0 LegendMM LegendMM   100.20     LegendNANA
21:00 16.0 2.9 42 0.0 LegendMM LegendMM   100.23     LegendNANA
22:00 15.2 3.0 44 0.0 LegendMM LegendMM   100.27     LegendNANA
23:00 14.0 3.7 50 0.0 LegendMM LegendMM   100.26     LegendNANA

Notes on Data Quality.

Legend

  • E = Estimated
  • M = Missing
  • NA = Not Available*
  • [empty] = Indicates an unobserved value
Date modified: